Weather History for Saranac Lake, NY

Change the Weather History Date:

Tuesday, December 24, 2013

  Actual Average Record
Temperature  
Mean Temperature 7 °F 16 °F  
Max Temperature 17 °F 26 °F 50 °F (1957)
Min Temperature -3 °F 6 °F -21 °F (1989)
Degree Days  
Heating Degree Days 58 49  
Month to date heating degree days 1112 1075  
Since 1 July heating degree days 3498 3350  
Moisture  
Dew Point 4 °F    
Average Humidity 77    
Maximum Humidity 92    
Minimum Humidity 61    
Precipitation  
Precipitation T in 0.07 in 0.90 in (1990)
Month to date precipitation 2.30 1.87  
Year to date precipitation 41.15 37.10  
Sea Level Pressure  
Sea Level Pressure 30.18 in    
Wind  
Wind Speed 6 mph (WSW)    
Max Wind Speed 14 mph    
Max Gust Speed 20 mph    
Visibility 7 miles    
Events Snow    
T = Trace of Precipitation, MM = Missing Value Source: NWS Daily Summary

Daily Weather History Graph

Daily Weather History Graph

Search for Another Location

Airport:

Trip Planner

Search our weather history database for the weather conditions in past years. The results will help you decide how hot, cold, wet, or windy it might be!

Date:

Astronomy

Dec. 24, 2013 Rise Set
Actual Time 7:31 AM EST 4:22 PM EST
Civil Twilight 6:57 AM EST 4:55 PM EST
Nautical Twilight 6:20 AM EST 5:32 PM EST
Astronomical Twilight 5:45 AM EST 6:07 PM EST
Moon 11:43 PM EST (12/24) 11:09 AM EST (12/24)
Length of Visible Light 9h 57m
Length of Day
8h 50m
Waning Gibbous, 59% of the Moon is Illuminated
Dec 24
Waning Gibbous
Dec 25
Last Quarter
Jan 1
New
Jan 7
First Quarter
Jan 15
Full

Hourly Weather History & Observations

Time (EST) Temp. Windchill Dew Point Humidity Pressure Visibility Wind Dir Wind Speed Gust Speed Precip Events Conditions
12:51 AM 16.0 °F 7.4 °F 12.0 °F 84% 30.16 in 4.0 mi WSW 5.8 mph - 0.00 in Snow Light Snow
1:13 AM 15.8 °F 8.6 °F 12.2 °F 86% 30.08 in 2.0 mi SW 4.6 mph - 0.00 in Snow Light Snow
1:20 AM 15.8 °F 4.2 °F 12.2 °F 86% 30.09 in 1.8 mi WSW 9.2 mph - 0.00 in Snow Light Snow
1:51 AM 15.1 °F 5.2 °F 10.9 °F 84% 30.18 in 2.0 mi Variable 6.9 mph - 0.00 in Snow Light Snow
1:58 AM 15.8 °F 7.2 °F 10.4 °F 79% 30.11 in 2.5 mi WSW 5.8 mph - 0.00 in Snow Light Snow
2:51 AM 15.1 °F 6.4 °F 10.0 °F 80% 30.18 in 3.0 mi SW 5.8 mph - 0.00 in Snow Light Snow
3:51 AM 14.0 °F 2.9 °F 9.0 °F 80% 30.18 in 5.0 mi WSW 8.1 mph - 0.00 in Snow Light Snow
4:27 AM 12.2 °F 2.9 °F 8.6 °F 85% 30.10 in 5.0 mi WSW 5.8 mph - 0.00 in Snow Light Snow
4:51 AM 12.0 °F 4.1 °F 9.0 °F 88% 30.18 in 8.0 mi SW 4.6 mph - 0.00 in   Mostly Cloudy
5:00 AM 10.4 °F 0.8 °F 8.6 °F 92% 30.10 in 10.0 mi SW 5.8 mph - N/A   Scattered Clouds
5:51 AM 7.0 °F -1.7 °F 5.0 °F 92% 30.18 in 10.0 mi SW 4.6 mph - N/A   Clear
6:51 AM 7.0 °F - 3.9 °F 87% 30.17 in 4.0 mi Calm Calm - N/A   Clear
7:51 AM 7.0 °F -1.7 °F 5.0 °F 92% 30.18 in 10.0 mi South 4.6 mph - N/A   Clear
8:51 AM 10.9 °F 1.4 °F 8.1 °F 88% 30.18 in 10.0 mi SW 5.8 mph - N/A   Clear
9:51 AM 12.9 °F 0.7 °F 8.1 °F 81% 30.18 in 10.0 mi SW 9.2 mph - N/A   Partly Cloudy
10:11 AM 14.0 °F 2.9 °F 8.6 °F 79% 30.09 in 10.0 mi SW 8.1 mph - N/A   Mostly Cloudy
10:51 AM 15.1 °F 3.3 °F 8.1 °F 74% 30.17 in 10.0 mi WSW 9.2 mph 16.1 mph N/A   Mostly Cloudy
11:51 AM 14.0 °F 5.1 °F 7.0 °F 74% 30.14 in 9.0 mi West 5.8 mph - N/A   Overcast
12:51 PM 17.1 °F 5.0 °F 7.0 °F 65% 30.13 in 10.0 mi West 10.4 mph 16.1 mph N/A   Overcast
1:42 PM 17.6 °F 6.4 °F 6.8 °F 63% 30.03 in 10.0 mi WSW 9.2 mph - N/A   Scattered Clouds
1:51 PM 16.0 °F 6.3 °F 7.0 °F 68% 30.12 in 10.0 mi WSW 6.9 mph - N/A   Unknown
2:51 PM 16.0 °F 5.3 °F 6.1 °F 65% 30.13 in 10.0 mi WSW 8.1 mph - N/A   Partly Cloudy
3:51 PM 12.9 °F 3.8 °F 6.1 °F 74% 30.15 in 10.0 mi Variable 5.8 mph - N/A   Clear
4:51 PM 8.1 °F -0.5 °F 3.9 °F 83% 30.19 in 9.0 mi Variable 4.6 mph - N/A   Clear
5:29 PM 6.8 °F -2.0 °F 1.4 °F 79% 30.10 in 6.0 mi Variable 4.6 mph - N/A   Mostly Cloudy
5:51 PM 3.9 °F -3.4 °F 1.0 °F 88% 30.22 in 7.0 mi Variable 3.5 mph - N/A   Mostly Cloudy
6:51 PM 1.9 °F -10.6 °F -2.0 °F 83% 30.26 in 5.0 mi Variable 6.9 mph - N/A   Overcast
7:07 PM 1.4 °F -11.3 °F -2.2 °F 85% 30.14 in 7.0 mi WNW 6.9 mph - N/A   Overcast
7:51 PM 1.9 °F -11.8 °F -2.9 °F 80% 30.28 in 10.0 mi West 8.1 mph - N/A   Overcast
8:17 PM 1.4 °F -11.3 °F -4.0 °F 78% 30.16 in 6.0 mi Variable 6.9 mph - N/A   Haze
8:51 PM 1.0 °F -11.7 °F -5.1 °F 75% 30.30 in 5.0 mi WNW 6.9 mph - N/A   Haze
9:51 PM -0.0 °F -13.0 °F -5.1 °F 79% 30.31 in 4.0 mi West 6.9 mph - N/A   Haze
10:04 PM -0.4 °F -13.4 °F -5.8 °F 78% 30.20 in 6.0 mi WSW 6.9 mph - N/A   Haze
10:13 PM -0.4 °F -12.0 °F -5.8 °F 78% 30.20 in 5.0 mi West 5.8 mph - N/A   Haze
10:51 PM -0.9 °F -11.0 °F -6.0 °F 79% 30.32 in 4.0 mi Variable 4.6 mph - N/A   Haze
11:05 PM -0.4 °F -10.4 °F -5.8 °F 78% 30.21 in 2.0 mi Variable 4.6 mph - N/A   Haze
11:22 PM -2.2 °F -15.6 °F -7.6 °F 78% 30.22 in 4.0 mi WSW 6.9 mph - N/A   Haze
11:51 PM -2.9 °F -15.0 °F -7.1 °F 82% 30.35 in 4.0 mi West 5.8 mph - N/A   Overcast